This is the latest recevied weather packets stored in our database for station/object ac2ev. If no packets are shown the sender has not sent any weather packets the latest 10 day(s).
| Time | Temp. | Humidity | Pressure | Rain* | Wind** | Luminosity | Snow |
|---|---|---|---|---|---|---|---|
| 1777128571 | 5° C | 92% | 1011 hPa | 1.52 mm | - | - | - |
| 1777128272 | 5° C | 92% | 1010.8 hPa | 1.52 mm | - | - | - |
| 1777127970 | 5° C | 92% | 1010.8 hPa | 1.78 mm | - | - | - |
| 1777127671 | 5° C | 92% | 1010.8 hPa | 1.52 mm | - | - | - |
| 1777127370 | 5° C | 92% | 1010.8 hPa | 1.78 mm | - | - | - |
| 1777127071 | 5° C | 92% | 1010.8 hPa | 1.78 mm | - | - | - |
| 1777126772 | 5° C | 92% | 1010.8 hPa | 1.78 mm | - | - | - |
| 1777126467 | 5° C | 92% | 1010.9 hPa | 2.03 mm | - | - | - |
| 1777126164 | 5° C | 92% | 1011 hPa | 2.03 mm | - | - | - |
| 1777125864 | 4.44° C | 92% | 1010.9 hPa | 2.29 mm | - | - | - |
| 1777125562 | 4.44° C | 92% | 1010.9 hPa | 2.03 mm | - | - | - |
| 1777125260 | 4.44° C | 92% | 1011 hPa | 2.29 mm | - | - | - |
| 1777124958 | 4.44° C | 92% | 1011 hPa | 2.54 mm | - | - | - |
| 1777124656 | 4.44° C | 92% | 1011.1 hPa | 2.54 mm | - | - | - |
| 1777124356 | 4.44° C | 92% | 1011.1 hPa | 2.54 mm | - | - | - |
| 1777124054 | 4.44° C | 92% | 1011.1 hPa | 2.54 mm | - | - | - |
| 1777123754 | 4.44° C | 92% | 1011.1 hPa | 2.54 mm | - | - | - |
| 1777123454 | 4.44° C | 92% | 1011.1 hPa | 2.54 mm | - | - | - |
| 1777123154 | 4.44° C | 91% | 1011.3 hPa | 2.54 mm | - | - | - |
| 1777122854 | 4.44° C | 91% | 1011.3 hPa | 2.54 mm | - | - | - |
| 1777122552 | 4.44° C | 91% | 1011.2 hPa | 2.54 mm | - | - | - |
| 1777122251 | 4.44° C | 91% | 1011.1 hPa | 2.29 mm | - | - | - |
| 1777121952 | 4.44° C | 91% | 1011 hPa | 2.54 mm | - | - | - |
| 1777121649 | 4.44° C | 91% | 1011.1 hPa | 2.29 mm | - | - | - |
| 1777121348 | 4.44° C | 91% | 1011.1 hPa | 2.03 mm | - | - | - |
* Rain latest hour (hover to see other rain measurements)
** Current wind speed in m/s (hover to see current wind gust speed)